Location: Newark
(47.5833°N, 8.1500°E)
Time: 08:20:30
(UTC+00:00)

Altair - Pass Details

Date: 30 October 2020
Orbit: 1502 x 1682 km, 47.2° (Epoch: 03 December)

Event Time Altitude Azimuth Distance (km) Brightness Sun altitude
Exits shadow 03:06:26 20° 186° (S) 2,965 8.8 -31.1°
Maximum altitude 03:11:43 35° 137° (SE) 2,298 8.6 -30.2°
Drops below altitude 10° 03:19:53 10° 77° (ENE) 3,758 10.5 -28.9°
Sets 03:23:20 0° 69° (ENE) 4,772 11.3 -28.3°
